• En España
  • Lista de países
  • Para 7 días
  • Temperatura del agua
  • Mapa Satelital
  • El tiempo en el mapa
  • Informadores
  • user-avatar
    Iniciar sesión

    Tiempo cada hora Sao Bras de Alportel

    Hoy, 22 Noviembre, Miércoles

    Tiempo Temperatura Precipitaciones Viento Presión Humedad
    00:00 +12°C° 0 mm 2 mps 742 mmHg 73%
    01:00 +12°C° 0 mm 2 mps 742 mmHg 74%
    02:00 +12°C° 0 mm 2 mps 742 mmHg 76%
    03:00 +12°C° 0 mm 2 mps 741 mmHg 78%
    04:00 +10°C° 0 mm 3 mps 741 mmHg 81%
    05:00 +10°C° 0 mm 3 mps 741 mmHg 83%
    06:00 +12°C° 0 mm 3 mps 741 mmHg 78%
    07:00 +13°C° 0 mm 3 mps 741 mmHg 74%
    08:00 +14°C° 0 mm 3 mps 742 mmHg 69%
    09:00 +17°C° 0 mm 3 mps 742 mmHg 61%
    10:00 +19°C° 0 mm 4 mps 741 mmHg 53%
    11:00 +21°C° 0 mm 4 mps 741 mmHg 45%
    12:00 +21°C° 0 mm 4 mps 741 mmHg 45%
    13:00 +22°C° 0 mm 4 mps 741 mmHg 45%
    14:00 +22°C° 0 mm 4 mps 740 mmHg 45%
    15:00 +20°C° 0 mm 4 mps 740 mmHg 56%
    16:00 +18°C° 0 mm 4 mps 740 mmHg 68%
    17:00 +16°C° 0 mm 3 mps 740 mmHg 80%
    18:00 +16°C° 0 mm 3 mps 741 mmHg 83%
    19:00 +16°C° 0 mm 3 mps 741 mmHg 86%
    20:00 +14°C° 0 mm 3 mps 741 mmHg 89%
    21:00 +14°C° 0 mm 3 mps 741 mmHg 90%
    22:00 +14°C° 0 mm 3 mps 741 mmHg 91%
    23:00 +13°C° 0 mm 3 mps 741 mmHg 92%

    Mañana, 23 Noviembre, Jueves

    Tiempo Temperatura Precipitaciones Viento Presión Humedad
    00:00 +13°C° 0 mm 3 mps 741 mmHg 92%
    01:00 +13°C° 0 mm 3 mps 741 mmHg 92%
    02:00 +13°C° 0 mm 3 mps 741 mmHg 92%
    03:00 +13°C° 0 mm 4 mps 741 mmHg 92%
    04:00 +13°C° 0 mm 4 mps 741 mmHg 93%
    05:00 +13°C° 0 mm 4 mps 741 mmHg 93%
    06:00 +14°C° 0 mm 4 mps 741 mmHg 86%
    07:00 +15°C° 0 mm 5 mps 742 mmHg 80%
    08:00 +16°C° 0 mm 6 mps 742 mmHg 74%
    09:00 +19°C° 0 mm 6 mps 742 mmHg 63%
    10:00 +21°C° 0 mm 7 mps 742 mmHg 51%
    11:00 +22°C° 0 mm 8 mps 742 mmHg 40%
    12:00 +22°C° 0 mm 7 mps 742 mmHg 40%
    13:00 +22°C° 0 mm 7 mps 742 mmHg 39%
    14:00 +22°C° 0 mm 7 mps 742 mmHg 39%
    15:00 +20°C° 0,1 mm 6 mps 742 mmHg 48%
    16:00 +19°C° 0,1 mm 5 mps 742 mmHg 58%
    17:00 +17°C° 0,1 mm 4 mps 742 mmHg 68%
    18:00 +17°C° 0,1 mm 4 mps 743 mmHg 67%
    19:00 +17°C° 0,1 mm 3 mps 743 mmHg 67%
    20:00 +17°C° 0,1 mm 3 mps 743 mmHg 66%
    21:00 +16°C° 0 mm 3 mps 743 mmHg 73%
    22:00 +14°C° 0 mm 3 mps 743 mmHg 80%
    23:00 +14°C° 0 mm 4 mps 743 mmHg 87%

    Pasado mañana, 24 Noviembre, Viernes

    Tiempo Temperatura Precipitaciones Viento Presión Humedad
    00:00 +14°C° 0 mm 4 mps 743 mmHg 87%
    01:00 +14°C° 0 mm 4 mps 743 mmHg 88%
    02:00 +13°C° 0 mm 4 mps 742 mmHg 88%
    03:00 +13°C° 0 mm 4 mps 742 mmHg 87%
    04:00 +13°C° 0 mm 4 mps 742 mmHg 86%
    05:00 +13°C° 0 mm 4 mps 742 mmHg 85%
    06:00 +14°C° 0 mm 5 mps 743 mmHg 78%
    07:00 +15°C° 0 mm 5 mps 743 mmHg 72%
    08:00 +17°C° 0 mm 5 mps 743 mmHg 65%
    09:00 +20°C° 0 mm 5 mps 743 mmHg 55%
    10:00 +22°C° 0 mm 6 mps 743 mmHg 44%
    11:00 +23°C° 0 mm 6 mps 743 mmHg 33%
    12:00 +23°C° 0 mm 6 mps 743 mmHg 34%
    13:00 +23°C° 0 mm 6 mps 743 mmHg 34%
    14:00 +23°C° 0 mm 5 mps 742 mmHg 34%
    15:00 +21°C° 0 mm 5 mps 742 mmHg 42%
    16:00 +19°C° 0 mm 4 mps 742 mmHg 50%
    17:00 +17°C° 0 mm 3 mps 742 mmHg 59%
    18:00 +17°C° 0 mm 3 mps 743 mmHg 64%
    19:00 +16°C° 0 mm 2 mps 743 mmHg 70%
    20:00 +15°C° 0 mm 2 mps 743 mmHg 75%
    21:00 +16°C° 0 mm 2 mps 743 mmHg 75%
    22:00 +16°C° 0 mm 2 mps 743 mmHg 74%
    23:00 +16°C° 0 mm 2 mps 743 mmHg 73%

    25 Noviembre, Sábado

    Tiempo Temperatura Precipitaciones Viento Presión Humedad
    00:00 +16°C° 0 mm 2 mps 743 mmHg 74%
    01:00 +16°C° 0 mm 1 mps 743 mmHg 74%
    02:00 +16°C° 0 mm 1 mps 743 mmHg 75%
    03:00 +15°C° 0 mm 2 mps 743 mmHg 76%
    04:00 +15°C° 0 mm 2 mps 743 mmHg 78%
    05:00 +14°C° 0 mm 2 mps 743 mmHg 80%
    06:00 +15°C° 0 mm 2 mps 743 mmHg 75%
    07:00 +16°C° 0 mm 2 mps 744 mmHg 70%
    08:00 +17°C° 0 mm 2 mps 744 mmHg 66%
    09:00 +18°C° 0 mm 2 mps 744 mmHg 60%
    10:00 +19°C° 0 mm 2 mps 744 mmHg 54%
    11:00 +21°C° 0 mm 2 mps 744 mmHg 48%
    12:00 +21°C° 0 mm 2 mps 744 mmHg 46%
    13:00 +23°C° 0 mm 2 mps 743 mmHg 44%
    14:00 +23°C° 0 mm 2 mps 743 mmHg 41%
    15:00 +21°C° 0 mm 2 mps 743 mmHg 47%
    16:00 +19°C° 0 mm 2 mps 744 mmHg 53%
    17:00 +18°C° 0 mm 2 mps 744 mmHg 60%
    18:00 +17°C° 0 mm 2 mps 744 mmHg 61%
    19:00 +17°C° 0 mm 2 mps 745 mmHg 62%
    20:00 +17°C° 0 mm 2 mps 745 mmHg 64%
    21:00 +16°C° 0 mm 3 mps 745 mmHg 64%
    22:00 +16°C° 0 mm 3 mps 745 mmHg 63%
    23:00 +15°C° 0 mm 4 mps 745 mmHg 63%

    26 Noviembre, Domingo

    Tiempo Temperatura Precipitaciones Viento Presión Humedad
    00:00 +16°C° 0 mm 3 mps 744 mmHg 61%
    01:00 +16°C° 0 mm 3 mps 744 mmHg 59%
    02:00 +16°C° 0 mm 3 mps 744 mmHg 57%
    03:00 +16°C° 0,1 mm 3 mps 744 mmHg 59%
    04:00 +16°C° 0,1 mm 3 mps 744 mmHg 61%
    05:00 +14°C° 0,1 mm 3 mps 744 mmHg 62%
    06:00 +14°C° 0,2 mm 4 mps 745 mmHg 67%
    07:00 +14°C° 0,2 mm 4 mps 745 mmHg 72%
    08:00 +14°C° 0,2 mm 4 mps 746 mmHg 77%
    09:00 +15°C° 0 mm 4 mps 746 mmHg 74%
    10:00 +17°C° 0 mm 4 mps 746 mmHg 72%
    11:00 +16°C° 0 mm 5 mps 746 mmHg 69%
    12:00 +18°C° 0 mm 4 mps 746 mmHg 64%
    13:00 +19°C° 0 mm 4 mps 746 mmHg 59%
    14:00 +19°C° 0 mm 4 mps 746 mmHg 54%
    15:00 +18°C° 0 mm 4 mps 746 mmHg 59%
    16:00 +17°C° 0 mm 3 mps 746 mmHg 63%
    17:00 +16°C° 0 mm 3 mps 746 mmHg 68%
    18:00 +16°C° 0 mm 3 mps 746 mmHg 68%
    19:00 +15°C° 0 mm 4 mps 746 mmHg 69%
    20:00 +14°C° 0 mm 4 mps 746 mmHg 70%
    21:00 +14°C° 0 mm 4 mps 746 mmHg 69%
    22:00 +14°C° 0 mm 4 mps 746 mmHg 69%
    23:00 +14°C° 0 mm 4 mps 746 mmHg 68%

    27 Noviembre, Lunes

    Tiempo Temperatura Precipitaciones Viento Presión Humedad
    00:00 +14°C° 0 mm 4 mps 746 mmHg 67%
    01:00 +14°C° 0 mm 4 mps 745 mmHg 66%
    02:00 +13°C° 0 mm 5 mps 745 mmHg 65%
    03:00 +14°C° 0 mm 5 mps 745 mmHg 65%
    04:00 +14°C° 0 mm 5 mps 745 mmHg 65%
    05:00 +14°C° 0 mm 5 mps 745 mmHg 65%
    06:00 +15°C° 0 mm 5 mps 745 mmHg 64%
    07:00 +15°C° 0 mm 5 mps 745 mmHg 63%
    08:00 +15°C° 0 mm 5 mps 745 mmHg 62%
    09:00 +16°C° 0 mm 5 mps 745 mmHg 62%
    10:00 +16°C° 0 mm 5 mps 745 mmHg 61%
    11:00 +17°C° 0 mm 5 mps 745 mmHg 61%
    12:00 +17°C° 0,1 mm 5 mps 744 mmHg 62%
    13:00 +19°C° 0,1 mm 6 mps 744 mmHg 64%
    14:00 +19°C° 0,1 mm 6 mps 743 mmHg 65%
    15:00 +17°C° 0 mm 6 mps 743 mmHg 69%
    16:00 +16°C° 0 mm 6 mps 743 mmHg 73%
    17:00 +15°C° 0 mm 6 mps 743 mmHg 78%
    18:00 +15°C° 0 mm 5 mps 743 mmHg 79%
    19:00 +15°C° 0 mm 5 mps 743 mmHg 81%
    20:00 +15°C° 0 mm 5 mps 742 mmHg 83%
    21:00 +15°C° 0,2 mm 5 mps 742 mmHg 87%
    22:00 +15°C° 0,2 mm 5 mps 742 mmHg 90%
    23:00 +15°C° 0,2 mm 5 mps 741 mmHg 94%
    Mostrar más